Regional Weather Roundup
Issued by NWS

Home | Current Version | Previous Version | Text Only | Print | Product List | Glossary On
Versions: 1 2 3 4 5 6 7 8 9 10 11 12 13 14 15 16 17 18 19 20 21 22 23 24 25 26 27 28 29 30 31 32 33 34 35 36 37 38 39 40 41 42 43 44 45 46 47 48 49 50
000
ASUS43 KDMX 111707
RWRIA

WEATHER ROUNDUP FOR IOWA
NATIONAL WEATHER SERVICE DES MOINES IA
1200 PM CDT FRI JUL 11 2014

NOTE: "FAIR" INDICATES FEW OR NO CLOUDS BELOW 12,000 FEET WITH NO
SIGNIFICANT WEATHER AND/OR OBSTRUCTIONS TO VISIBILITY.

* - THESE STATIONS ARE NOT NWS STATIONS...THUS NOT UNDER NWS
QUALITY CONTROL.  THEY ALSO DO NOT REPORT WEATHER SUCH
AS PRECIPITATION OR FOG.

IAZ001>003-012>014-020>022-031>034-043>046-111800-
   NORTHWEST IOWA

CITY           SKY/WX    TMP DP  RH WIND       PRES   REMARKS
CARROLL *      SUNNY     70  66  88 S13G20    29.96F
CHEROKEE *     CLOUDY    75  70  83 S14       29.98R
DENISON *      MOSUNNY   70  68  94 S10       29.98R
LE MARS *      CLOUDY    73  68  83 S15       29.98R
ORANGE CITY *  CLOUDY    75  68  78 S13       29.98S
SHELDON *      CLOUDY    73  68  83 S13       29.97S
SIOUX CITY     CLOUDY    75  69  81 S12       29.97R
SPENCER        CLOUDY    76  67  73 SW15G22   29.99S
STORM LAKE *   PTSUNNY   72  68  88 S16G25    29.99F
$$

IAZ055>058-069>071-079>083-090>094-111800-
   SOUTHWEST IOWA

CITY           SKY/WX    TMP DP  RH WIND       PRES   REMARKS
ATLANTIC *     CLOUDY    72  66  83 S14G20    29.99S
AUDUBON *      LGT RAIN  72  68  88 SE8       30.00F
CLARINDA *     MOSUNNY   77  70  78 S12       30.02F
COUNCIL BLFS * PTSUNNY   73  72  94 S14       29.98R
CRESTON *      CLOUDY    72  68  88 SE10G17   30.03F
HARLAN  *      CLOUDY    70  68  94 S10       30.03F
LAMONI         CLOUDY    75  68  78 SE13      30.05F
RED OAK *      PTSUNNY   75  70  83 S15G21    29.99F
SHENANDOAH *   SUNNY     77  70  78 S12       30.00F
$$

IAZ047>049-059>061-072>074-084-111800-
   CENTRAL IOWA

CITY           SKY/WX    TMP DP  RH WIND       PRES   REMARKS
AMES           CLOUDY    69  66  90 S10       30.03R
ANKENY *       SUNNY     70  66  88 SE10      30.03F
CHARITON *     SUNNY     73  68  83 SE10      30.05F
DES MOINES     CLOUDY    71  67  87 SE12      30.03F
GRINNELL*      CLOUDY    70  63  78 SE13      30.06F
KNOXVILLE *    SUNNY     72  64  78 SE8G15    30.04F
MARSHALLTOWN   CLOUDY    70  64  81 S12G20    30.04S
PELLA *        CLOUDY    72  66  83 SE9       30.08F
PERRY *          N/A     70  68  94 S10G16    30.02R
$$

IAZ004>006-015-016-023>025-035-036-111800-
   NORTH CENTRAL IOWA

CITY           SKY/WX    TMP DP  RH WIND       PRES   REMARKS
ALGONA *       SUNNY     77  66  69 S17G23    30.00R
CLARION *      MOSUNNY   72  66  83 S17G25    29.98F
ESTHERVILLE    PTSUNNY   78  65  63 S18G26    29.99R HX  80
FORT DODGE *   PTSUNNY   70  64  83 S12       29.99R
MASON CITY     CLOUDY    75  66  73 S16G23    30.02S
FOREST CITY *  SUNNY     75  66  73 SE15      29.99F
IOWA FALLS *     N/A     72  64  78 S10       30.04F
$$

IAZ007>011-017>019-026>030-037>042-050>054-066-111800-
   NORTHEAST IOWA

CITY           SKY/WX    TMP DP  RH WIND       PRES   REMARKS
CEDAR RAPIDS   PTSUNNY   75  62  64 S9        30.10F
CHARLES CITY * SUNNY     70  63  78 SE8G17    30.06R
CLINTON *      CLOUDY    73  61  64 SE12      30.19F
DECORAH *        N/A    N/A N/A N/A MISG        N/A
DUBUQUE        CLOUDY    69  60  73 S10       30.16F
MONTICELLO *   SUNNY     73  63  68 SE8       30.13F
OELWEIN *      MOSUNNY   68  68 100 SE17      30.07F
WATERLOO       CLOUDY    70  61  73 SE17      30.01F
$$

IAZ064-065-067-068-078-111800-
   EAST CENTRAL IOWA

CITY           SKY/WX    TMP DP  RH WIND       PRES   REMARKS
DAVENPORT      PTSUNNY   77  63  61 S10       30.15F
IOWA CITY      PTSUNNY   78  65  63 SE13      30.12F HX  80
MT. PLEASANT * CLOUDY    79  63  57 SE12G17   30.11F HX  80
MUSCATINE *    SUNNY     79  63  57 SE10G17   30.12F HX  80
QUAD CITIES    MOSUNNY   78  61  55 SE12      30.15S HX  80
$$

IAZ062-063-075>077-085>089-095>099-111800-
   SOUTHEAST IOWA

CITY           SKY/WX    TMP DP  RH WIND       PRES   REMARKS
BURLINGTON     PTSUNNY   79  64  60 S13       30.12F HX  81
FAIRFIELD *    SUNNY     75  64  69 S8G16     30.11S
FORT MADISON * SUNNY     81  66  61 S10G17    30.12F HX  83
KEOKUK *       SUNNY     81  66  61 SE10G18   30.10F HX  83
OSKALOOSA *      N/A     75  66  73 SE8       30.08F
CENTERVILLE *  SUNNY     75  68  78 SE9       30.09S
OTTUMWA        CLOUDY    74  66  76 SE12      30.07F
WASHINGTON *   SUNNY     77  66  69 SE13      30.11F
$$

ABBREVIATIONS USED IN REMARKS
   TC - TEMPERATURES IN CELSIUS
  WCI - WIND CHILL INDEX
   HX - HEAT INDEX
  VSB - VISIBILITY
$$




USA.gov is the U.S. government's official web portal to all federal, state and local government web resources and services.